Regional Weather Roundup
Issued by NWS

Home | Current Version | Previous Version | Graphics & Text | Print | Product List | Glossary On
Versions: 1 2 3 4 5 6 7 8 9 10 11 12 13 14 15 16 17 18 19 20 21 22 23 24 25 26 27 28 29 30 31 32 33 34 35 36 37 38 39 40 41 42 43 44 45 46 47 48 49 50
000
ASUS44 KMEG 311210
RWRTN
TENNESSEE HOURLY STATE WEATHER ROUNDUP
NATIONAL WEATHER SERVICE MEMPHIS TN
700 AM CDT FRI OCT 31 2014

TNZ002-004-019-021-049-052-054-088>092-311300-
WEST TENNESSEE

CITY           SKY/WX    TMP DP  RH WIND       PRES   REMARKS
MEMPHIS INTL   PTCLDY    50  47  89 NW9       30.02R
NWS MEMPHIS      N/A     46 N/A N/A MISG        N/A
JACKSON        FOG       45  43  93 CALM      30.02R VSB 1/4
DYERSBURG      CLEAR     48  36  61 N5        30.05R
UNION CITY     MOCLDY    48  46  93 N5        30.03R
PARIS          CLOUDY    48  45  87 N5        30.02R
HUNTINGDON     MOCLDY    47  43  86 N3        30.02R
LEXINGTON      CLOUDY    46  45  93 E5        29.98F
SAVANNAH       CLOUDY    45  45 100 CALM      30.00R
$$

TNZ008-025-027-028-033-062-065-066-311300-
NORTH MIDDLE TENNESSEE

CITY           SKY/WX    TMP DP  RH WIND       PRES   REMARKS
NASHVILLE      CLOUDY    50  45  83 CALM      30.00R
DICKSON        CLOUDY    46  45  93 CALM      30.00R
PORTLAND       CLOUDY    46  45  93 CALM      29.99R
CLARKSVILLE    CLOUDY    49  47  93 N3        30.01R
LEBANON        CLOUDY    47  45  93 CALM      29.98S
SMYRNA         CLOUDY    48  46  93 CALM      30.01S
MURFREESBORO   MOCLDY    48  45  90 CALM      29.99S
COOKEVILLE     MOCLDY    45  43  93 CALM      29.97S
LIVINGSTON     CLOUDY    44  42  93 CALM      29.97S
GALLATIN       CLOUDY    47  47 100 NW3       30.00S
CROSSVILLE     CLOUDY    44  39  82 CALM      29.97S
ROCKWOOD       CLOUDY    41  39  92 CALM      29.96S
$$

TNZ061-075-076-078-094-096-097-311300-
SOUTH MIDDLE TENNESSEE

CITY           SKY/WX    TMP DP  RH WIND       PRES   REMARKS
FAYETTEVILLE   CLEAR     43  39  87 E35       29.98S
TULLAHOMA      PTCLDY    45  39  81 CALM      30.00R
WINCHESTER     CLOUDY    43  43 100 CALM      30.00S
MCMINNVILLE    MOCLDY    46  46 100 CALM      29.99R
COLUMBIA       CLOUDY   N/A N/A N/A CALM      29.98S
SHELBYVILLE    CLOUDY    46  45  93 CALM      30.00S
$$

TNZ017-018-042-046-047-311300-
NORTHEAST TENNESSEE

CITY           SKY/WX    TMP DP  RH WIND       PRES   REMARKS
TRI CITIES     FOG       34  34 100 NE3       29.97S VSB 1/4
ELIZABETHTON   SUNNY     34  32  93 CALM      29.96S
$$

TNZ012-013-036-069-073-074-311300-
CENTRAL EAST TENNESSEE

CITY           SKY/WX    TMP DP  RH WIND       PRES   REMARKS
KNOXVILLE      MOCLDY    40  38  93 CALM      29.97F
OAK RIDGE      CLOUDY    41  39  93 CALM      29.99F
GATLINBURG     SUNNY     36  34  93 CALM      29.98S
MORRISTOWN     MOSUNNY   39  37  93 CALM      29.98R
$$

TNZ083-085-099-311300-
SOUTHEAST TENNESSEE

CITY           SKY/WX    TMP DP  RH WIND       PRES   REMARKS
CHATTANOOGA    CLOUDY    49  42  77 NW5       29.97S
$$

SKY/WX REPORTED AS FAIR MEANS FEW OR NO CLOUDS BELOW
12 THOUSAND FEET.




USA.gov is the U.S. government's official web portal to all federal, state and local government web resources and services.